User: anonymous   Login
Location: ??????
(30.5519°N, 47.7720°E)
Time: 21:41:43
(UTC+00:00)
Language:

Cosmos 44 Rocket - Orbit

View from above orbital plane
View from above orbital plane
View from above satellite
View from above satellite

Ground track
Ground track

The orbit data is extracted from the following two-line orbital elements,

1   877U 64053B   21112.49410001 -.00000054  00000-0  14181-4 0  9995
2   877  65.0762 145.8261 0083296 276.9910  82.1720 14.59425937  6587
Epoch (UTC): 22 April 2021 11:51:30
Eccentricity: 0.0083296
inclination: 65.0762°
perigee height: 636 km
apogee height: 754 km
right ascension of ascending node: 145.8261°
argument of perigee: 276.9910°
revolutions per day: 14.59425937
mean anomaly at epoch: 82.1720°
orbit number at epoch: 658

The dashed part of the orbit path shows where the satellite is in the earth's shadow,  

DLR